Tracking 31027 objects as of 19-Jul-2025
HD Live streaming from Space Station
objects crossing your sky now

CZ-4 DEB

Track CZ-4 DEB now!
10-day predictions


NORAD ID: 20855
Int'l Code: 1990-081T
Perigee: 852.2 km
Apogee: 886.9 km
Inclination: 98.8 °
Period: 102.2 minutes
Semi major axis: 7240 km
RCS: 7.4909 m2 (large)
Launch date: September 3, 1990
Source: People's Republic of China (PRC)
Launch site: Taiyaun Space Center, China (TSC)

Note: This is SATELLITE DEBRIS
Your satellite tracking list
EKRAN 2 DEB
Track 1 satellite(s)




NASA's NSSDC Master Catalog

Two Line Element Set (TLE):
1 20855U 90081T   25199.51529847 -.00000061  00000-0 -10076-4 0  9992
2 20855  98.7905 183.2258 0023979   0.4539 107.1122 14.09102201792316
Source of the keplerian elements: AFSPC